contact:dominique.lefevre@mio.osupytheas.fr, maurice.libes@osupytheas.fr, didier.mallarino@osupytheas.fr
Project:EMSO http://www.emso-fr.org/EMSO-France
Depth: 2436.0 m
Title:EMSO Ligure Ouest : Data MII capteur MICROCAT
DateTime_Computer,Latitude,Longitude,Temperature,Conductivity,Pressure,DateTime_Instrument
DateTime_Computer,Latitude,Longitude,degC,S m-1,dbar,DateTime_Instrument
2021-06-20T00:00:23Z,42.805,6.029,13.2988,4.59994,2470.483,2021-6-20T02:01:37Z
2021-06-20T00:03:26Z,42.805,6.029,13.2989,4.59995,2470.437,2021-6-20T02:04:40Z
2021-06-20T00:06:29Z,42.805,6.029,13.2987,4.59994,2470.46,2021-6-20T02:07:43Z
2021-06-20T00:09:33Z,42.805,6.029,13.2991,4.59995,2470.46,2021-6-20T02:10:46Z
2021-06-20T00:12:36Z,42.805,6.029,13.2991,4.59997,2470.437,2021-6-20T02:13:50Z
2021-06-20T00:15:39Z,42.805,6.029,13.2991,4.59995,2470.474,2021-6-20T02:16:53Z
2021-06-20T00:18:42Z,42.805,6.029,13.2986,4.59994,2470.46,2021-6-20T02:19:56Z
2021-06-20T00:21:45Z,42.805,6.029,13.2989,4.59994,2470.497,2021-6-20T02:22:59Z
2021-06-20T00:24:48Z,42.805,6.029,13.2990,4.59995,2470.474,2021-6-20T02:26:02Z
2021-06-20T00:27:51Z,42.805,6.029,13.2990,4.59996,2470.46,2021-6-20T02:29:05Z
2021-06-20T00:30:54Z,42.805,6.029,13.2984,4.59994,2470.474,2021-6-20T02:32:08Z
2021-06-20T00:33:57Z,42.805,6.029,13.2986,4.59994,2470.474,2021-6-20T02:35:11Z
2021-06-20T00:37:01Z,42.805,6.029,13.2986,4.59994,2470.46,2021-6-20T02:38:14Z
2021-06-20T00:40:04Z,42.805,6.029,13.2983,4.59994,2470.46,2021-6-20T02:41:18Z
2021-06-20T00:43:07Z,42.805,6.029,13.2988,4.59996,2470.474,2021-6-20T02:44:21Z
2021-06-20T00:46:10Z,42.805,6.029,13.2987,4.59995,2470.437,2021-6-20T02:47:24Z
2021-06-20T00:49:13Z,42.805,6.029,13.2983,4.59994,2470.483,2021-6-20T02:50:27Z
2021-06-20T00:52:16Z,42.805,6.029,13.2985,4.59995,2470.46,2021-6-20T02:53:30Z
2021-06-20T00:55:19Z,42.805,6.029,13.2986,4.59994,2470.46,2021-6-20T02:56:33Z
2021-06-20T00:58:22Z,42.805,6.029,13.2986,4.59996,2470.493,2021-6-20T02:59:36Z
2021-06-20T01:01:26Z,42.805,6.029,13.2986,4.59994,2470.52,2021-6-20T03:02:39Z
2021-06-20T01:04:29Z,42.805,6.029,13.2984,4.59994,2470.46,2021-6-20T03:05:43Z
2021-06-20T01:07:32Z,42.805,6.029,13.2988,4.59993,2470.46,2021-6-20T03:08:46Z
2021-06-20T01:10:35Z,42.805,6.029,13.2989,4.59994,2470.46,2021-6-20T03:11:49Z
2021-06-20T01:13:38Z,42.805,6.029,13.2988,4.59996,2470.474,2021-6-20T03:14:52Z
2021-06-20T01:16:41Z,42.805,6.029,13.2989,4.59995,2470.474,2021-6-20T03:17:55Z
2021-06-20T01:19:44Z,42.805,6.029,13.2987,4.59994,2470.483,2021-6-20T03:20:58Z
2021-06-20T01:22:47Z,42.805,6.029,13.2987,4.59994,2470.46,2021-6-20T03:24:01Z
2021-06-20T01:25:51Z,42.805,6.029,13.2989,4.59994,2470.45,2021-6-20T03:27:04Z
2021-06-20T01:28:54Z,42.805,6.029,13.2985,4.59996,2470.52,2021-6-20T03:30:08Z
2021-06-20T01:31:57Z,42.805,6.029,13.2985,4.59994,2470.507,2021-6-20T03:33:11Z
2021-06-20T01:35:00Z,42.805,6.029,13.2986,4.59994,2470.46,2021-6-20T03:36:14Z
2021-06-20T01:38:03Z,42.805,6.029,13.2988,4.59994,2470.483,2021-6-20T03:39:17Z
2021-06-20T01:41:06Z,42.805,6.029,13.2985,4.59993,2470.46,2021-6-20T03:42:20Z
2021-06-20T01:44:09Z,42.805,6.029,13.2987,4.59994,2470.497,2021-6-20T03:45:23Z
2021-06-20T01:47:12Z,42.805,6.029,13.2987,4.59995,2470.483,2021-6-20T03:48:26Z
2021-06-20T01:50:16Z,42.805,6.029,13.2990,4.59994,2470.507,2021-6-20T03:51:29Z
2021-06-20T01:53:19Z,42.805,6.029,13.2985,4.59994,2470.497,2021-6-20T03:54:33Z
2021-06-20T01:56:22Z,42.805,6.029,13.2986,4.59994,2470.507,2021-6-20T03:57:36Z
2021-06-20T01:59:25Z,42.805,6.029,13.2986,4.59995,2470.507,2021-6-20T04:00:39Z
2021-06-20T02:02:28Z,42.805,6.029,13.2985,4.59994,2470.483,2021-6-20T04:03:42Z
2021-06-20T02:05:31Z,42.805,6.029,13.2990,4.59994,2470.507,2021-6-20T04:06:45Z
2021-06-20T02:08:34Z,42.805,6.029,13.2987,4.59994,2470.493,2021-6-20T04:09:48Z
2021-06-20T02:11:37Z,42.805,6.029,13.2987,4.59995,2470.483,2021-6-20T04:12:51Z
2021-06-20T02:14:41Z,42.805,6.029,13.2990,4.59995,2470.483,2021-6-20T04:15:54Z
2021-06-20T02:17:44Z,42.805,6.029,13.2986,4.59994,2470.507,2021-6-20T04:18:58Z
2021-06-20T02:20:47Z,42.805,6.029,13.2988,4.59994,2470.483,2021-6-20T04:22:01Z
2021-06-20T02:23:50Z,42.805,6.029,13.2986,4.59995,2470.52,2021-6-20T04:25:04Z
2021-06-20T02:26:53Z,42.805,6.029,13.2985,4.59996,2470.483,2021-6-20T04:28:07Z
2021-06-20T02:29:56Z,42.805,6.029,13.2986,4.59996,2470.52,2021-6-20T04:31:10Z
2021-06-20T02:32:59Z,42.805,6.029,13.2985,4.59994,2470.483,2021-6-20T04:34:13Z
2021-06-20T02:36:02Z,42.805,6.029,13.2986,4.59994,2470.483,2021-6-20T04:37:16Z
2021-06-20T02:39:06Z,42.805,6.029,13.2990,4.59993,2470.507,2021-6-20T04:40:19Z
2021-06-20T02:42:09Z,42.805,6.029,13.2984,4.59993,2470.46,2021-6-20T04:43:23Z
2021-06-20T02:45:12Z,42.805,6.029,13.2988,4.59996,2470.483,2021-6-20T04:46:26Z
2021-06-20T02:48:15Z,42.805,6.029,13.2987,4.59995,2470.507,2021-6-20T04:49:29Z
2021-06-20T02:51:18Z,42.805,6.029,13.2988,4.59994,2470.483,2021-6-20T04:52:32Z
2021-06-20T02:54:21Z,42.805,6.029,13.2988,4.59994,2470.497,2021-6-20T04:55:35Z
2021-06-20T02:57:24Z,42.805,6.029,13.2986,4.59994,2470.483,2021-6-20T04:58:38Z
2021-06-20T03:00:27Z,42.805,6.029,13.2989,4.59993,2470.483,2021-6-20T05:01:41Z
2021-06-20T03:03:31Z,42.805,6.029,13.2982,4.59994,2470.52,2021-6-20T05:04:44Z
2021-06-20T03:06:34Z,42.805,6.029,13.2990,4.59994,2470.497,2021-6-20T05:07:48Z
2021-06-20T03:09:37Z,42.805,6.029,13.2990,4.59994,2470.474,2021-6-20T05:10:51Z
2021-06-20T03:12:40Z,42.805,6.029,13.2986,4.59995,2470.483,2021-6-20T05:13:54Z
2021-06-20T03:15:43Z,42.805,6.029,13.2986,4.59994,2470.46,2021-6-20T05:16:57Z
2021-06-20T03:18:46Z,42.805,6.029,13.2988,4.59994,2470.507,2021-6-20T05:20:00Z
2021-06-20T03:21:49Z,42.805,6.029,13.2988,4.59995,2470.52,2021-6-20T05:23:03Z
2021-06-20T03:24:52Z,42.805,6.029,13.2987,4.59993,2470.497,2021-6-20T05:26:06Z
2021-06-20T03:27:55Z,42.805,6.029,13.2986,4.59994,2470.483,2021-6-20T05:29:09Z
2021-06-20T03:30:59Z,42.805,6.029,13.2986,4.59994,2470.483,2021-6-20T05:32:13Z
2021-06-20T03:34:02Z,42.805,6.029,13.2983,4.59993,2470.497,2021-6-20T05:35:16Z
2021-06-20T03:37:05Z,42.805,6.029,13.2990,4.59993,2470.46,2021-6-20T05:38:19Z
2021-06-20T03:40:08Z,42.805,6.029,13.2988,4.59994,2470.483,2021-6-20T05:41:22Z
2021-06-20T03:43:11Z,42.805,6.029,13.2989,4.59995,2470.483,2021-6-20T05:44:25Z
2021-06-20T03:46:14Z,42.805,6.029,13.2986,4.59993,2470.497,2021-6-20T05:47:28Z
2021-06-20T03:49:17Z,42.805,6.029,13.2988,4.59994,2470.53,2021-6-20T05:50:31Z
2021-06-20T03:52:20Z,42.805,6.029,13.2987,4.59994,2470.507,2021-6-20T05:53:34Z
2021-06-20T03:55:24Z,42.805,6.029,13.2987,4.59994,2470.497,2021-6-20T05:56:38Z
2021-06-20T03:58:27Z,42.805,6.029,13.2985,4.59994,2470.483,2021-6-20T05:59:41Z
2021-06-20T04:01:30Z,42.805,6.029,13.2986,4.59994,2470.507,2021-6-20T06:02:44Z
2021-06-20T04:04:33Z,42.805,6.029,13.2986,4.59994,2470.52,2021-6-20T06:05:47Z
2021-06-20T04:07:36Z,42.805,6.029,13.2990,4.59994,2470.507,2021-6-20T06:08:50Z
2021-06-20T04:10:39Z,42.805,6.029,13.2986,4.59995,2470.507,2021-6-20T06:11:53Z
2021-06-20T04:13:42Z,42.805,6.029,13.2988,4.59994,2470.483,2021-6-20T06:14:56Z
2021-06-20T04:16:45Z,42.805,6.029,13.2983,4.59993,2470.483,2021-6-20T06:17:59Z
2021-06-20T04:19:49Z,42.805,6.029,13.2985,4.59993,2470.46,2021-6-20T06:21:02Z
2021-06-20T04:22:52Z,42.805,6.029,13.2985,4.59994,2470.483,2021-6-20T06:24:06Z
2021-06-20T04:25:55Z,42.805,6.029,13.2983,4.59994,2470.46,2021-6-20T06:27:09Z
2021-06-20T04:28:58Z,42.805,6.029,13.2986,4.59994,2470.483,2021-6-20T06:30:12Z
2021-06-20T04:32:01Z,42.805,6.029,13.2983,4.59995,2470.483,2021-6-20T06:33:15Z
2021-06-20T04:35:04Z,42.805,6.029,13.2986,4.59996,2470.507,2021-6-20T06:36:18Z
2021-06-20T04:38:07Z,42.805,6.029,13.2987,4.59994,2470.483,2021-6-20T06:39:21Z
2021-06-20T04:41:10Z,42.805,6.029,13.2987,4.59997,2470.497,2021-6-20T06:42:24Z
2021-06-20T04:44:14Z,42.805,6.029,13.2983,4.59994,2470.507,2021-6-20T06:45:27Z
2021-06-20T04:47:17Z,42.805,6.029,13.2987,4.59993,2470.46,2021-6-20T06:48:31Z
2021-06-20T04:50:20Z,42.805,6.029,13.2984,4.59995,2470.45,2021-6-20T06:51:34Z
2021-06-20T04:53:23Z,42.805,6.029,13.2990,4.59994,2470.437,2021-6-20T06:54:37Z
2021-06-20T04:56:26Z,42.805,6.029,13.2990,4.59995,2470.497,2021-6-20T06:57:40Z
2021-06-20T04:59:29Z,42.805,6.029,13.2985,4.59994,2470.497,2021-6-20T07:00:43Z
2021-06-20T05:02:32Z,42.805,6.029,13.2988,4.59994,2470.46,2021-6-20T07:03:46Z
2021-06-20T05:05:35Z,42.805,6.029,13.2984,4.59994,2470.45,2021-6-20T07:06:49Z
2021-06-20T05:08:39Z,42.805,6.029,13.2983,4.59997,2470.46,2021-6-20T07:09:52Z
2021-06-20T05:11:42Z,42.805,6.029,13.2990,4.59994,2470.483,2021-6-20T07:12:56Z
2021-06-20T05:14:45Z,42.805,6.029,13.2986,4.59993,2470.46,2021-6-20T07:15:59Z
2021-06-20T05:17:48Z,42.805,6.029,13.2986,4.59992,2470.46,2021-6-20T07:19:02Z
2021-06-20T05:20:51Z,42.805,6.029,13.2986,4.59993,2470.483,2021-6-20T07:22:05Z
2021-06-20T05:23:54Z,42.805,6.029,13.2987,4.59994,2470.437,2021-6-20T07:25:08Z
2021-06-20T05:26:57Z,42.805,6.029,13.2986,4.59994,2470.46,2021-6-20T07:28:11Z
2021-06-20T05:30:00Z,42.805,6.029,13.2987,4.59994,2470.46,2021-6-20T07:31:14Z
2021-06-20T05:33:04Z,42.805,6.029,13.2986,4.59994,2470.46,2021-6-20T07:34:17Z
2021-06-20T05:36:07Z,42.805,6.029,13.2986,4.59994,2470.46,2021-6-20T07:37:21Z
2021-06-20T05:39:10Z,42.805,6.029,13.2986,4.59995,2470.45,2021-6-20T07:40:24Z
2021-06-20T05:42:13Z,42.805,6.029,13.2990,4.59994,2470.45,2021-6-20T07:43:27Z
2021-06-20T05:45:16Z,42.805,6.029,13.2983,4.59994,2470.437,2021-6-20T07:46:30Z
2021-06-20T05:48:19Z,42.805,6.029,13.2987,4.59994,2470.474,2021-6-20T07:49:33Z
2021-06-20T05:51:22Z,42.805,6.029,13.2986,4.59996,2470.474,2021-6-20T07:52:36Z
2021-06-20T05:54:25Z,42.805,6.029,13.2983,4.59993,2470.46,2021-6-20T07:55:39Z
2021-06-20T05:57:29Z,42.805,6.029,13.2985,4.59994,2470.437,2021-6-20T07:58:42Z
2021-06-20T06:00:32Z,42.805,6.029,13.2987,4.59993,2470.437,2021-6-20T08:01:46Z
2021-06-20T06:03:35Z,42.805,6.029,13.2983,4.59994,2470.45,2021-6-20T08:04:49Z
2021-06-20T06:06:38Z,42.805,6.029,13.2985,4.59994,2470.437,2021-6-20T08:07:52Z
2021-06-20T06:09:41Z,42.805,6.029,13.2983,4.59993,2470.437,2021-6-20T08:10:55Z
2021-06-20T06:12:44Z,42.805,6.029,13.2984,4.59994,2470.45,2021-6-20T08:13:58Z
2021-06-20T06:15:47Z,42.805,6.029,13.2988,4.59993,2470.413,2021-6-20T08:17:01Z
2021-06-20T06:18:50Z,42.805,6.029,13.2988,4.59994,2470.45,2021-6-20T08:20:04Z
2021-06-20T06:21:53Z,42.805,6.029,13.2986,4.59996,2470.413,2021-6-20T08:23:07Z
2021-06-20T06:24:57Z,42.805,6.029,13.2990,4.59996,2470.45,2021-6-20T08:26:11Z
2021-06-20T06:28:00Z,42.805,6.029,13.2986,4.59994,2470.399,2021-6-20T08:29:14Z
2021-06-20T06:31:03Z,42.805,6.029,13.2989,4.59992,2470.437,2021-6-20T08:32:17Z
2021-06-20T06:34:06Z,42.805,6.029,13.2984,4.59993,2470.437,2021-6-20T08:35:20Z
2021-06-20T06:37:09Z,42.805,6.029,13.2991,4.59993,2470.413,2021-6-20T08:38:23Z
2021-06-20T06:40:12Z,42.805,6.029,13.2986,4.59994,2470.413,2021-6-20T08:41:26Z
2021-06-20T06:43:15Z,42.805,6.029,13.2986,4.59993,2470.39,2021-6-20T08:44:29Z
2021-06-20T06:46:19Z,42.805,6.029,13.2984,4.59995,2470.427,2021-6-20T08:47:32Z
2021-06-20T06:49:22Z,42.805,6.029,13.2987,4.59995,2470.413,2021-6-20T08:50:36Z
2021-06-20T06:52:25Z,42.805,6.029,13.2990,4.59994,2470.39,2021-6-20T08:53:39Z
2021-06-20T06:55:28Z,42.805,6.029,13.2986,4.59994,2470.39,2021-6-20T08:56:42Z
2021-06-20T06:58:31Z,42.805,6.029,13.2983,4.59993,2470.427,2021-6-20T08:59:45Z
2021-06-20T07:01:34Z,42.805,6.029,13.2987,4.59996,2470.39,2021-6-20T09:02:48Z
2021-06-20T07:04:37Z,42.805,6.029,13.2988,4.59993,2470.404,2021-6-20T09:05:51Z
2021-06-20T07:07:40Z,42.805,6.029,13.2985,4.59994,2470.399,2021-6-20T09:08:54Z
2021-06-20T07:10:43Z,42.805,6.029,13.2986,4.59993,2470.45,2021-6-20T09:11:57Z
2021-06-20T07:13:47Z,42.805,6.029,13.2987,4.59993,2470.39,2021-6-20T09:15:01Z
2021-06-20T07:16:50Z,42.805,6.029,13.2986,4.59993,2470.39,2021-6-20T09:18:04Z
2021-06-20T07:19:53Z,42.805,6.029,13.2984,4.59994,2470.404,2021-6-20T09:21:07Z
2021-06-20T07:22:56Z,42.805,6.029,13.2984,4.59992,2470.39,2021-6-20T09:24:10Z
2021-06-20T07:25:59Z,42.805,6.029,13.2989,4.59993,2470.376,2021-6-20T09:27:13Z
2021-06-20T07:29:02Z,42.805,6.029,13.2989,4.59994,2470.413,2021-6-20T09:30:16Z
2021-06-20T07:32:05Z,42.805,6.029,13.2988,4.59994,2470.38,2021-6-20T09:33:19Z
2021-06-20T07:35:08Z,42.805,6.029,13.2988,4.59994,2470.38,2021-6-20T09:36:22Z
2021-06-20T07:38:12Z,42.805,6.029,13.2987,4.59993,2470.404,2021-6-20T09:39:26Z
2021-06-20T07:41:15Z,42.805,6.029,13.2990,4.59994,2470.39,2021-6-20T09:42:29Z
2021-06-20T07:44:18Z,42.805,6.029,13.2990,4.59994,2470.366,2021-6-20T09:45:32Z
2021-06-20T07:47:21Z,42.805,6.029,13.2988,4.59994,2470.343,2021-6-20T09:48:35Z
2021-06-20T07:50:24Z,42.805,6.029,13.2983,4.59992,2470.366,2021-6-20T09:51:38Z
2021-06-20T07:53:27Z,42.805,6.029,13.2986,4.59994,2470.39,2021-6-20T09:54:41Z
2021-06-20T07:56:30Z,42.805,6.029,13.2986,4.59994,2470.366,2021-6-20T09:57:44Z
2021-06-20T07:59:33Z,42.805,6.029,13.2985,4.59992,2470.366,2021-6-20T10:00:47Z
2021-06-20T08:02:37Z,42.805,6.029,13.2989,4.59993,2470.366,2021-6-20T10:03:50Z
2021-06-20T08:05:40Z,42.805,6.029,13.2985,4.59993,2470.38,2021-6-20T10:06:54Z
2021-06-20T08:08:43Z,42.805,6.029,13.2988,4.59994,2470.357,2021-6-20T10:09:57Z
2021-06-20T08:11:46Z,42.805,6.029,13.2983,4.59993,2470.38,2021-6-20T10:13:00Z
2021-06-20T08:14:49Z,42.805,6.029,13.2987,4.59991,2470.404,2021-6-20T10:16:03Z
2021-06-20T08:17:52Z,42.805,6.029,13.2984,4.59993,2470.366,2021-6-20T10:19:06Z
2021-06-20T08:20:55Z,42.805,6.029,13.2986,4.59995,2470.38,2021-6-20T10:22:09Z
2021-06-20T08:23:58Z,42.805,6.029,13.2986,4.59993,2470.38,2021-6-20T10:25:12Z
2021-06-20T08:27:02Z,42.805,6.029,13.2984,4.59994,2470.38,2021-6-20T10:28:15Z
2021-06-20T08:30:05Z,42.805,6.029,13.2983,4.59992,2470.357,2021-6-20T10:31:19Z
2021-06-20T08:33:08Z,42.805,6.029,13.2983,4.59992,2470.33,2021-6-20T10:34:22Z
2021-06-20T08:36:11Z,42.805,6.029,13.2986,4.59993,2470.38,2021-6-20T10:37:25Z
2021-06-20T08:39:14Z,42.805,6.029,13.2989,4.59993,2470.32,2021-6-20T10:40:28Z
2021-06-20T08:42:17Z,42.805,6.029,13.2986,4.59993,2470.366,2021-6-20T10:43:31Z
2021-06-20T08:45:20Z,42.805,6.029,13.2985,4.59991,2470.334,2021-6-20T10:46:34Z
2021-06-20T08:48:23Z,42.805,6.029,13.2983,4.59994,2470.343,2021-6-20T10:49:37Z
2021-06-20T08:51:27Z,42.805,6.029,13.2985,4.59993,2470.38,2021-6-20T10:52:41Z
2021-06-20T08:54:30Z,42.805,6.029,13.2990,4.59993,2470.38,2021-6-20T10:55:44Z
2021-06-20T08:57:33Z,42.805,6.029,13.2989,4.59993,2470.297,2021-6-20T10:58:47Z
2021-06-20T09:00:36Z,42.805,6.029,13.2987,4.59992,2470.343,2021-6-20T11:01:50Z
2021-06-20T09:03:39Z,42.805,6.029,13.2990,4.59993,2470.334,2021-6-20T11:04:53Z
2021-06-20T09:06:42Z,42.805,6.029,13.2985,4.59992,2470.32,2021-6-20T11:07:56Z
2021-06-20T09:09:45Z,42.805,6.029,13.2983,4.59992,2470.334,2021-6-20T11:10:59Z
2021-06-20T09:12:48Z,42.805,6.029,13.2988,4.59993,2470.32,2021-6-20T11:14:02Z
2021-06-20T09:15:52Z,42.805,6.029,13.2986,4.59996,2470.297,2021-6-20T11:17:06Z
2021-06-20T09:18:55Z,42.805,6.029,13.2983,4.59993,2470.297,2021-6-20T11:20:09Z
2021-06-20T09:21:58Z,42.805,6.029,13.2985,4.59993,2470.357,2021-6-20T11:23:12Z
2021-06-20T09:25:01Z,42.805,6.029,13.2986,4.59994,2470.297,2021-6-20T11:26:15Z
2021-06-20T09:28:04Z,42.805,6.029,13.2984,4.59993,2470.343,2021-6-20T11:29:18Z
2021-06-20T09:31:07Z,42.805,6.029,13.2986,4.59992,2470.32,2021-6-20T11:32:21Z
2021-06-20T09:34:10Z,42.805,6.029,13.2986,4.59992,2470.297,2021-6-20T11:35:24Z
2021-06-20T09:37:13Z,42.805,6.029,13.2982,4.59992,2470.32,2021-6-20T11:38:27Z
2021-06-20T09:40:17Z,42.805,6.029,13.2986,4.59993,2470.32,2021-6-20T11:41:31Z
2021-06-20T09:43:20Z,42.805,6.029,13.2983,4.59993,2470.297,2021-6-20T11:44:34Z
2021-06-20T09:46:23Z,42.805,6.029,13.2985,4.59993,2470.32,2021-6-20T11:47:37Z
2021-06-20T09:49:26Z,42.805,6.029,13.2986,4.59993,2470.32,2021-6-20T11:50:40Z
2021-06-20T09:52:29Z,42.805,6.029,13.2985,4.59992,2470.343,2021-6-20T11:53:43Z
2021-06-20T09:55:32Z,42.805,6.029,13.2981,4.59993,2470.334,2021-6-20T11:56:46Z
2021-06-20T09:58:35Z,42.805,6.029,13.2985,4.59991,2470.297,2021-6-20T11:59:49Z
2021-06-20T10:01:38Z,42.805,6.029,13.2986,4.59994,2470.334,2021-6-20T12:02:52Z
2021-06-20T10:04:42Z,42.805,6.029,13.2983,4.59993,2470.32,2021-6-20T12:05:56Z
2021-06-20T10:07:45Z,42.805,6.029,13.2986,4.59991,2470.32,2021-6-20T12:08:59Z
2021-06-20T10:10:48Z,42.805,6.029,13.2987,4.59994,2470.32,2021-6-20T12:12:02Z
2021-06-20T10:13:51Z,42.805,6.029,13.2986,4.59993,2470.273,2021-6-20T12:15:05Z
2021-06-20T10:16:54Z,42.805,6.029,13.2982,4.59993,2470.297,2021-6-20T12:18:08Z
2021-06-20T10:19:57Z,42.805,6.029,13.2986,4.59992,2470.32,2021-6-20T12:21:11Z
2021-06-20T10:23:00Z,42.805,6.029,13.2986,4.59991,2470.32,2021-6-20T12:24:14Z
2021-06-20T10:26:03Z,42.805,6.029,13.2988,4.59994,2470.273,2021-6-20T12:27:17Z
2021-06-20T10:29:07Z,42.805,6.029,13.2984,4.59993,2470.334,2021-6-20T12:30:21Z
2021-06-20T10:32:10Z,42.805,6.029,13.2986,4.59992,2470.31,2021-6-20T12:33:24Z
2021-06-20T10:35:13Z,42.805,6.029,13.2987,4.59993,2470.297,2021-6-20T12:36:27Z
2021-06-20T10:38:16Z,42.805,6.029,13.2985,4.59994,2470.334,2021-6-20T12:39:30Z
2021-06-20T10:41:19Z,42.805,6.029,13.2985,4.59992,2470.273,2021-6-20T12:42:33Z
2021-06-20T10:44:22Z,42.805,6.029,13.2987,4.59994,2470.32,2021-6-20T12:45:36Z
2021-06-20T10:47:25Z,42.805,6.029,13.2985,4.59992,2470.32,2021-6-20T12:48:39Z
2021-06-20T10:50:28Z,42.805,6.029,13.2986,4.59993,2470.31,2021-6-20T12:51:42Z
2021-06-20T10:53:32Z,42.805,6.029,13.2988,4.59992,2470.31,2021-6-20T12:54:46Z
2021-06-20T10:56:35Z,42.805,6.029,13.2983,4.59994,2470.334,2021-6-20T12:57:49Z
2021-06-20T10:59:38Z,42.805,6.029,13.2986,4.59993,2470.357,2021-6-20T13:00:52Z
2021-06-20T11:02:41Z,42.805,6.029,13.2983,4.59994,2470.32,2021-6-20T13:03:55Z
2021-06-20T11:05:44Z,42.805,6.029,13.2985,4.59995,2470.32,2021-6-20T13:06:58Z
2021-06-20T11:08:47Z,42.805,6.029,13.2983,4.59993,2470.32,2021-6-20T13:10:01Z
2021-06-20T11:11:50Z,42.805,6.029,13.2987,4.59993,2470.343,2021-6-20T13:13:04Z
2021-06-20T11:14:54Z,42.805,6.029,13.2988,4.59994,2470.32,2021-6-20T13:16:07Z
2021-06-20T11:17:57Z,42.805,6.029,13.2986,4.59993,2470.334,2021-6-20T13:19:11Z
2021-06-20T11:21:00Z,42.805,6.029,13.2989,4.59993,2470.297,2021-6-20T13:22:14Z
2021-06-20T11:24:03Z,42.805,6.029,13.2986,4.59994,2470.297,2021-6-20T13:25:17Z
2021-06-20T11:27:06Z,42.805,6.029,13.2984,4.59994,2470.366,2021-6-20T13:28:20Z
2021-06-20T11:30:09Z,42.805,6.029,13.2987,4.59993,2470.357,2021-6-20T13:31:23Z
2021-06-20T11:33:12Z,42.805,6.029,13.2986,4.59994,2470.32,2021-6-20T13:34:26Z
2021-06-20T11:36:15Z,42.805,6.029,13.2986,4.59994,2470.32,2021-6-20T13:37:29Z
2021-06-20T11:39:19Z,42.805,6.029,13.2988,4.59993,2470.32,2021-6-20T13:40:32Z
2021-06-20T11:42:22Z,42.805,6.029,13.2991,4.59993,2470.357,2021-6-20T13:43:36Z
2021-06-20T11:45:25Z,42.805,6.029,13.2991,4.59995,2470.32,2021-6-20T13:46:39Z
2021-06-20T11:48:28Z,42.805,6.029,13.2992,4.59994,2470.357,2021-6-20T13:49:42Z
2021-06-20T11:51:31Z,42.805,6.029,13.2990,4.59994,2470.357,2021-6-20T13:52:45Z
2021-06-20T11:54:34Z,42.805,6.029,13.2983,4.59995,2470.366,2021-6-20T13:55:48Z
2021-06-20T11:57:37Z,42.805,6.029,13.2987,4.59995,2470.366,2021-6-20T13:58:51Z
2021-06-20T12:00:40Z,42.805,6.029,13.2989,4.59995,2470.343,2021-6-20T14:01:54Z
2021-06-20T12:03:44Z,42.805,6.029,13.2986,4.59995,2470.334,2021-6-20T14:04:57Z
2021-06-20T12:06:47Z,42.805,6.029,13.2986,4.59995,2470.38,2021-6-20T14:08:01Z
2021-06-20T12:09:50Z,42.805,6.029,13.2986,4.59996,2470.33,2021-6-20T14:11:04Z
2021-06-20T12:12:53Z,42.805,6.029,13.2989,4.59996,2470.343,2021-6-20T14:14:07Z
2021-06-20T12:15:56Z,42.805,6.029,13.2994,4.59996,2470.357,2021-6-20T14:17:10Z
2021-06-20T12:18:59Z,42.805,6.029,13.2986,4.59996,2470.38,2021-6-20T14:20:13Z
2021-06-20T12:22:02Z,42.805,6.029,13.2991,4.59996,2470.357,2021-6-20T14:23:16Z
2021-06-20T12:25:05Z,42.805,6.029,13.2990,4.59997,2470.366,2021-6-20T14:26:19Z
2021-06-20T12:28:09Z,42.805,6.029,13.2991,4.59998,2470.366,2021-6-20T14:29:22Z
2021-06-20T12:31:12Z,42.805,6.029,13.2990,4.59997,2470.404,2021-6-20T14:32:26Z
2021-06-20T12:34:15Z,42.805,6.029,13.2985,4.59998,2470.38,2021-6-20T14:35:29Z
2021-06-20T12:37:18Z,42.805,6.029,13.2991,4.59997,2470.39,2021-6-20T14:38:32Z
2021-06-20T12:40:21Z,42.805,6.029,13.2993,4.59996,2470.413,2021-6-20T14:41:35Z
2021-06-20T12:43:24Z,42.805,6.029,13.2991,4.59997,2470.366,2021-6-20T14:44:38Z
2021-06-20T12:46:27Z,42.805,6.029,13.2990,4.59998,2470.404,2021-6-20T14:47:41Z
2021-06-20T12:49:30Z,42.805,6.029,13.2990,4.59997,2470.39,2021-6-20T14:50:44Z
2021-06-20T12:52:34Z,42.805,6.029,13.2991,4.59998,2470.366,2021-6-20T14:53:48Z
2021-06-20T12:55:37Z,42.805,6.029,13.2991,4.59997,2470.427,2021-6-20T14:56:51Z
2021-06-20T12:58:40Z,42.805,6.029,13.2992,4.59998,2470.366,2021-6-20T14:59:54Z
2021-06-20T13:01:43Z,42.805,6.029,13.2990,4.59999,2470.39,2021-6-20T15:02:57Z
2021-06-20T13:04:46Z,42.805,6.029,13.2991,4.59998,2470.413,2021-6-20T15:06:00Z
2021-06-20T13:07:49Z,42.805,6.029,13.2991,4.59998,2470.404,2021-6-20T15:09:03Z
2021-06-20T13:10:52Z,42.805,6.029,13.2990,4.59998,2470.413,2021-6-20T15:12:06Z
2021-06-20T13:13:55Z,42.805,6.029,13.2993,4.59999,2470.404,2021-6-20T15:15:09Z
2021-06-20T13:16:59Z,42.805,6.029,13.2990,4.60000,2470.413,2021-6-20T15:18:12Z
2021-06-20T13:20:02Z,42.805,6.029,13.2990,4.59999,2470.437,2021-6-20T15:21:16Z
2021-06-20T13:23:05Z,42.805,6.029,13.2996,4.60001,2470.427,2021-6-20T15:24:19Z
2021-06-20T13:26:08Z,42.805,6.029,13.2990,4.60000,2470.427,2021-6-20T15:27:22Z
2021-06-20T13:29:11Z,42.805,6.029,13.2990,4.59999,2470.427,2021-6-20T15:30:25Z
2021-06-20T13:32:14Z,42.805,6.029,13.2992,4.59999,2470.437,2021-6-20T15:33:28Z
2021-06-20T13:35:17Z,42.805,6.029,13.2994,4.60001,2470.46,2021-6-20T15:36:31Z
2021-06-20T13:38:20Z,42.805,6.029,13.2993,4.59999,2470.413,2021-6-20T15:39:34Z
2021-06-20T13:41:24Z,42.805,6.029,13.2993,4.60001,2470.39,2021-6-20T15:42:38Z
2021-06-20T13:44:27Z,42.805,6.029,13.2995,4.60000,2470.413,2021-6-20T15:45:41Z
2021-06-20T13:47:30Z,42.805,6.029,13.2991,4.60000,2470.45,2021-6-20T15:48:44Z
2021-06-20T13:50:33Z,42.805,6.029,13.2993,4.60000,2470.46,2021-6-20T15:51:47Z
2021-06-20T13:53:36Z,42.805,6.029,13.2991,4.60000,2470.46,2021-6-20T15:54:50Z
2021-06-20T13:56:39Z,42.805,6.029,13.2990,4.59999,2470.413,2021-6-20T15:57:53Z
2021-06-20T13:59:42Z,42.805,6.029,13.2992,4.60000,2470.413,2021-6-20T16:00:56Z
2021-06-20T14:02:45Z,42.805,6.029,13.2990,4.60000,2470.413,2021-6-20T16:03:59Z
2021-06-20T14:05:49Z,42.805,6.029,13.2996,4.60000,2470.46,2021-6-20T16:07:03Z
2021-06-20T14:08:52Z,42.805,6.029,13.2988,4.59999,2470.427,2021-6-20T16:10:06Z
2021-06-20T14:11:55Z,42.805,6.029,13.2993,4.60001,2470.474,2021-6-20T16:13:09Z
2021-06-20T14:14:58Z,42.805,6.029,13.2991,4.60001,2470.437,2021-6-20T16:16:12Z
2021-06-20T14:18:01Z,42.805,6.029,13.2992,4.60001,2470.437,2021-6-20T16:19:15Z
2021-06-20T14:21:04Z,42.805,6.029,13.2996,4.59999,2470.45,2021-6-20T16:22:18Z
2021-06-20T14:24:07Z,42.805,6.029,13.2990,4.60000,2470.437,2021-6-20T16:25:21Z
2021-06-20T14:27:10Z,42.805,6.029,13.2995,4.60000,2470.45,2021-6-20T16:28:24Z
2021-06-20T14:30:14Z,42.805,6.029,13.2990,4.60001,2470.413,2021-6-20T16:31:28Z
2021-06-20T14:33:17Z,42.805,6.029,13.2990,4.59998,2470.46,2021-6-20T16:34:31Z
2021-06-20T14:36:20Z,42.805,6.029,13.2991,4.59996,2470.437,2021-6-20T16:37:34Z
2021-06-20T14:39:23Z,42.805,6.029,13.2996,4.59999,2470.45,2021-6-20T16:40:37Z
2021-06-20T14:42:26Z,42.805,6.029,13.2993,4.59998,2470.437,2021-6-20T16:43:40Z
2021-06-20T14:45:29Z,42.805,6.029,13.2989,4.59998,2470.46,2021-6-20T16:46:43Z
2021-06-20T14:48:32Z,42.805,6.029,13.2990,4.59998,2470.483,2021-6-20T16:49:46Z
2021-06-20T14:51:36Z,42.805,6.029,13.2990,4.59997,2470.46,2021-6-20T16:52:49Z
2021-06-20T14:54:39Z,42.805,6.029,13.2988,4.59999,2470.46,2021-6-20T16:55:53Z
2021-06-20T14:57:42Z,42.805,6.029,13.2990,4.59996,2470.45,2021-6-20T16:58:56Z
2021-06-20T15:00:45Z,42.805,6.029,13.2991,4.59996,2470.46,2021-6-20T17:01:59Z
2021-06-20T15:03:48Z,42.805,6.029,13.2987,4.59997,2470.46,2021-6-20T17:05:02Z
2021-06-20T15:06:51Z,42.805,6.029,13.2988,4.59996,2470.46,2021-6-20T17:08:05Z
2021-06-20T15:09:54Z,42.805,6.029,13.2987,4.59996,2470.474,2021-6-20T17:11:08Z
2021-06-20T15:12:57Z,42.805,6.029,13.2991,4.59996,2470.474,2021-6-20T17:14:11Z